Aeroporto :
LOGIN :

Iscrizione | Disclaimer

   EN    FR    IT 

 










Sommario :    VFR   VFR Marginale   IFR   IFR Intensivo   IFR Molto Intensivo
Visibilità : 
Base nubi : 
>= 8 km
>= 3000ft
5 / 8 km
1000 / 3000 ft
1500m / 5 km
500 / 1000 ft
800 / 1500m
200 / 500 ft
< 800m
< 200 ft
Simboli :   Temporali  Nebbia  Neve Forte  Precipitazioni Forti  Vento > 20 kt
SIGMETs :   Varie  Temporali  Ghiacco  Turbolenza  Onda orograficha  Ceneri Vulcaniche







- Altitudine del aeroporto : 295 ft
- Codice IATA : BWE


EDVE - Braunschweig

ULTIMO METAR :
  • 211720Z 27010KT 9999 OVC017 09/07 Q1024

METARs OBSOLETI :
  • 211650Z 27011KT 9999 OVC017 09/07 Q1024
  • 211620Z 27015KT 9999 BKN020 OVC026 09/07 Q1024
  • 211550Z 28010KT 9999 BKN023 11/06 Q1024
  • 211520Z 29015KT 9999 BKN026 11/05 Q1024
  • 211450Z 28014KT 9999 BKN028 11/05 Q1024

TAF TAF EDVE
Valido dal 21 a 18 ore il 21 a 21 ore UTC


211700Z 2118/2121 28009KT 6000 BKN015
BECMG 2118/2120 BKN006
TEMPO 2118/2121 3500 -DZRA
Nessun NOTAM noto per questo aeroporto.



MetMap, La meteo Aeronautica in un colpo d'occhio ! - Copyright ORBIFLY Dicembre 2007 - Disclaimer

ORBIFLY MET'MAP TEAM :

Programmazione e sviluppo : Alexandra Zaïnal
Concezione e sviluppo : Baudouin d'Aumeries
Co-Programmazione e sviluppo : Marc-Olivier Méhu
Supporto tecnico e logistico : Manuel Goepfert
Aiuto per la traduzione : Arnaldo La Scala

Contatto : metmap@orbifly.com




FONTI E CREDITI :

   NOAA